Weather History for Sallisaw, OK

Change the Weather History Date:

Friday, April 12, 2013

  Actual Average Record
Temperature  
Mean Temperature 48 °F -  
Max Temperature 62 °F 75 °F 93 °F (1972)
Min Temperature 35 °F 51 °F 27 °F (1957)
Degree Days  
Heating Degree Days 16    
Moisture  
Dew Point 35 °F    
Average Humidity 65    
Maximum Humidity 100    
Minimum Humidity 32    
Precipitation  
Precipitation 0.00 in - - ()
Sea Level Pressure  
Sea Level Pressure 29.95 in    
Wind  
Wind Speed 3 mph (NW)    
Max Wind Speed 15 mph    
Max Gust Speed 22 mph    
Visibility 10 miles    
Events      
Averages and records for this station are not official NWS values.
T = Trace of Precipitation, MM = Missing Value Source: NWS Daily Summary

Daily Weather History Graph

Daily Weather History Graph

Search for Another Location

Airport:

Trip Planner

Search our weather history database for the weather conditions in past years. The results will help you decide how hot, cold, wet, or windy it might be!

Date:

Astronomy

Apr. 12, 2013 Rise Set
Actual Time 6:50 AM CDT 7:49 PM CDT
Civil Twilight 6:24 AM CDT 8:16 PM CDT
Nautical Twilight 5:53 AM CDT 8:47 PM CDT
Astronomical Twilight 5:21 AM CDT 9:19 PM CDT
Moon 8:05 AM CDT (4/12) 10:16 PM CDT (4/12)
Length of Visible Light 13h 51m
Length of Day
12h 59m
Waxing Crescent, 5% of the Moon is Illuminated
Apr 12
Waxing Crescent
Apr 18
First Quarter
Apr 25
Full
May 2
Last Quarter
May 9
New

Hourly Weather History & Observations

Time (CDT) Temp. Windchill Dew Point Humidity Pressure Visibility Wind Dir Wind Speed Gust Speed Precip Events Conditions
12:15 AM 39.2 °F - 37.4 °F 93% 29.85 in 10.0 mi Calm Calm - N/A   Clear
12:35 AM 39.2 °F - 37.4 °F 93% 29.85 in 10.0 mi Calm Calm - N/A   Clear
12:55 AM 39.2 °F - 37.4 °F 93% 29.85 in 10.0 mi Calm Calm - N/A   Clear
1:15 AM 37.4 °F - 37.4 °F 100% 29.85 in 10.0 mi Calm Calm - N/A   Clear
1:35 AM 37.4 °F - 37.4 °F 100% 29.85 in 10.0 mi Calm Calm - N/A   Clear
1:55 AM 37.4 °F - 37.4 °F 100% 29.85 in 10.0 mi Calm Calm - N/A   Clear
2:15 AM 37.4 °F - 37.4 °F 100% 29.86 in 10.0 mi Calm Calm - N/A   Clear
2:35 AM 37.4 °F - 35.6 °F 93% 29.85 in 10.0 mi Calm Calm - N/A   Clear
2:55 AM 37.4 °F - 35.6 °F 93% 29.86 in 10.0 mi Calm Calm - N/A   Clear
3:15 AM 35.6 °F - 35.6 °F 100% 29.86 in 10.0 mi Calm Calm - N/A   Clear
3:35 AM 37.4 °F - 35.6 °F 93% 29.86 in 10.0 mi Calm Calm - N/A   Clear
3:55 AM 35.6 °F - 35.6 °F 100% 29.87 in 10.0 mi Calm Calm - N/A   Clear
4:15 AM 35.6 °F - 35.6 °F 100% 29.87 in 10.0 mi Calm Calm - N/A   Clear
4:35 AM 35.6 °F - 35.6 °F 100% 29.86 in 10.0 mi Calm Calm - N/A   Clear
4:55 AM 35.6 °F - 33.8 °F 93% 29.88 in 10.0 mi Calm Calm - N/A   Clear
5:15 AM 35.6 °F - 35.6 °F 100% 29.89 in 10.0 mi Calm Calm - N/A   Clear
5:35 AM 35.6 °F - 35.6 °F 100% 29.89 in 10.0 mi Calm Calm - N/A   Clear
5:55 AM 35.6 °F - 35.6 °F 100% 29.89 in 10.0 mi Calm Calm - N/A   Clear
6:15 AM 35.6 °F - 35.6 °F 100% 29.90 in 10.0 mi Calm Calm - N/A   Clear
6:35 AM 35.6 °F - 35.6 °F 100% 29.91 in 10.0 mi Calm Calm - N/A   Clear
6:55 AM 35.6 °F - 35.6 °F 100% 29.92 in 10.0 mi Calm Calm - N/A   Clear
7:15 AM 35.6 °F - 35.6 °F 100% 29.93 in 10.0 mi Calm Calm - N/A   Clear
7:35 AM 35.6 °F - 35.6 °F 100% 29.94 in 10.0 mi Calm Calm - N/A   Clear
7:55 AM 39.2 °F 34.2 °F 39.2 °F 100% 29.95 in 10.0 mi NNW 6.9 mph - N/A   Clear
8:15 AM 42.8 °F 38.0 °F 33.8 °F 70% 29.95 in 10.0 mi North 8.1 mph - N/A   Clear
8:35 AM 44.6 °F 40.2 °F 33.8 °F 66% 29.96 in 10.0 mi North 8.1 mph - N/A   Clear
8:55 AM 44.6 °F 39.7 °F 32.0 °F 61% 29.97 in 10.0 mi North 9.2 mph - N/A   Clear
9:15 AM 46.4 °F 41.9 °F 32.0 °F 57% 29.99 in 10.0 mi NNW 9.2 mph - N/A   Clear
9:35 AM 48.2 °F - 32.0 °F 54% 30.00 in 10.0 mi Calm Calm - N/A   Clear
9:55 AM 50.0 °F - 32.0 °F 50% 30.00 in 10.0 mi NW 9.2 mph - N/A   Clear
10:15 AM 50.0 °F - 32.0 °F 50% 30.00 in 10.0 mi NNW 10.4 mph - N/A   Clear
10:35 AM 50.0 °F - 32.0 °F 50% 30.01 in 10.0 mi NW 10.4 mph - N/A   Clear
10:55 AM 51.8 °F - 32.0 °F 47% 30.02 in 10.0 mi WNW 11.5 mph 17.3 mph N/A   Clear
11:15 AM 51.8 °F - 32.0 °F 47% 30.02 in 10.0 mi NNW 9.2 mph 17.3 mph N/A   Clear
11:55 AM 53.6 °F - 32.0 °F 44% 30.02 in 10.0 mi West 10.4 mph - N/A   Clear
12:15 PM 55.4 °F - 32.0 °F 41% 30.02 in 10.0 mi NW 6.9 mph - N/A   Clear
12:35 PM 55.4 °F - 32.0 °F 41% 30.02 in 10.0 mi WNW 9.2 mph - N/A   Clear
12:55 PM 55.4 °F - 32.0 °F 41% 30.02 in 10.0 mi West 5.8 mph - N/A   Clear
1:15 PM 57.2 °F - 32.0 °F 38% 30.02 in 10.0 mi WNW 15.0 mph 21.9 mph N/A   Clear
1:35 PM 57.2 °F - 32.0 °F 38% 30.02 in 10.0 mi West 12.7 mph 18.4 mph N/A   Clear
1:55 PM 59.0 °F - 32.0 °F 36% 30.01 in 10.0 mi West 11.5 mph - N/A   Clear
2:15 PM 59.0 °F - 33.8 °F 39% 30.01 in 10.0 mi WNW 9.2 mph 17.3 mph N/A   Clear
2:35 PM 59.0 °F - 33.8 °F 39% 30.00 in 10.0 mi WNW 12.7 mph 17.3 mph N/A   Clear
2:55 PM 59.0 °F - 32.0 °F 36% 30.00 in 10.0 mi WNW 12.7 mph 17.3 mph N/A   Clear
3:15 PM 60.8 °F - 33.8 °F 36% 30.00 in 10.0 mi West 11.5 mph - N/A   Clear
3:35 PM 60.8 °F - 33.8 °F 36% 29.99 in 10.0 mi West 11.5 mph 16.1 mph N/A   Clear
4:15 PM 60.8 °F - 32.0 °F 34% 29.97 in 10.0 mi NNW 5.8 mph - N/A   Clear
4:35 PM 60.8 °F - 32.0 °F 34% 29.97 in 10.0 mi NNW 6.9 mph - N/A   Clear
4:55 PM 60.8 °F - 32.0 °F 34% 29.97 in 10.0 mi NNW 5.8 mph - N/A   Clear
5:15 PM 60.8 °F - 32.0 °F 34% 29.97 in 10.0 mi WNW 6.9 mph - N/A   Clear
5:35 PM 62.6 °F - 32.0 °F 32% 29.97 in 10.0 mi West 5.8 mph - N/A   Clear
5:55 PM 60.8 °F - 32.0 °F 34% 29.97 in 10.0 mi West 4.6 mph - N/A   Clear
6:15 PM 60.8 °F - 32.0 °F 34% 29.97 in 10.0 mi NW 4.6 mph - N/A   Clear
6:35 PM 60.8 °F - 32.0 °F 34% 29.97 in 10.0 mi NNW 4.6 mph - N/A   Clear
6:55 PM 59.0 °F - 33.8 °F 39% 29.97 in 10.0 mi WNW 4.6 mph - N/A   Clear
7:15 PM 59.0 °F - 35.6 °F 42% 29.97 in 10.0 mi WSW 5.8 mph - N/A   Clear
7:35 PM 59.0 °F - 35.6 °F 42% 29.96 in 10.0 mi West 4.6 mph - N/A   Clear
7:55 PM 57.2 °F - 35.6 °F 44% 29.97 in 10.0 mi West 4.6 mph - N/A   Clear
8:15 PM 55.4 °F - 39.2 °F 54% 29.97 in 10.0 mi Calm Calm - N/A   Clear
8:35 PM 55.4 °F - 37.4 °F 51% 29.98 in 10.0 mi Calm Calm - N/A   Clear
8:55 PM 53.6 °F - 41.0 °F 62% 29.98 in 10.0 mi Calm Calm - N/A   Clear
9:15 PM 55.4 °F - 39.2 °F 54% 29.99 in 10.0 mi Calm Calm - N/A   Clear
9:35 PM 53.6 °F - 42.8 °F 67% 30.00 in 10.0 mi Calm Calm - N/A   Clear
9:55 PM 53.6 °F - 42.8 °F 67% 30.00 in 10.0 mi Calm Calm - N/A   Clear
10:15 PM 51.8 °F - 42.8 °F 71% 30.01 in 10.0 mi Calm Calm - N/A   Clear
10:35 PM 51.8 °F - 44.6 °F 76% 30.02 in 10.0 mi Calm Calm - N/A   Clear
10:55 PM 51.8 °F - 41.0 °F 67% 30.02 in 10.0 mi Calm Calm - N/A   Clear
11:15 PM 51.8 °F - 39.2 °F 62% 30.02 in 10.0 mi Calm Calm - N/A   Clear
11:35 PM 50.0 °F - 41.0 °F 71% 30.02 in 10.0 mi NE 3.5 mph - N/A   Clear
11:55 PM 50.0 °F - 41.0 °F 71% 30.02 in 10.0 mi East 3.5 mph - N/A   Clear